Saint Bonnet de Bellac- Haute Vienne - France
Donnes mto: lundi, 16/04/2012
Date Horaire Temp. E. Hum. E. P.atmo. Pluie Vent Direction Direction Ensoleilleme Solaire P. de rose Temp au vent Rafales
16/04/2012 00:00 6,3 C 64 % 1016,3 hPa 0,0 mm 13,0 km/h (3 Bft) NE 45 0 min 0 W/m 0,0 C 3,7 C 30,6 km/h (5 Bft)
16/04/2012 00:10 6,2 C 64 % 1016,4 hPa 0,0 mm 6,8 km/h (2 Bft) N-NE 22 0 min 0 W/m -0,1 C 4,9 C 10,8 km/h (2 Bft)
16/04/2012 00:20 6,1 C 64 % 1016,4 hPa 0,0 mm 6,5 km/h (2 Bft) N 360 0 min 0 W/m -0,2 C 4,8 C 13,7 km/h (3 Bft)
16/04/2012 00:30 6,0 C 65 % 1016,6 hPa 0,0 mm 9,4 km/h (2 Bft) N 360 0 min 0 W/m -0,1 C 4,0 C 13,0 km/h (3 Bft)
16/04/2012 00:40 5,9 C 65 % 1016,7 hPa 0,0 mm 15,8 km/h (3 Bft) N-NO 337 0 min 0 W/m -0,2 C 2,7 C 24,5 km/h (4 Bft)
16/04/2012 00:50 5,8 C 65 % 1016,7 hPa 0,0 mm 10,8 km/h (2 Bft) E 90 0 min 0 W/m -0,3 C 3,5 C 13,3 km/h (3 Bft)
16/04/2012 01:00 5,6 C 66 % 1016,9 hPa 0,0 mm 11,5 km/h (2 Bft) N 360 0 min 0 W/m -0,2 C 3,1 C 16,6 km/h (3 Bft)
16/04/2012 01:10 5,4 C 66 % 1017,0 hPa 0,0 mm 17,3 km/h (3 Bft) N 360 0 min 0 W/m -0,4 C 1,9 C 23,0 km/h (4 Bft)
16/04/2012 01:20 5,2 C 66 % 1017,2 hPa 0,0 mm 11,2 km/h (2 Bft) N-NE 22 0 min 0 W/m -0,6 C 2,7 C 17,3 km/h (3 Bft)
16/04/2012 01:30 5,0 C 67 % 1017,1 hPa 0,0 mm 16,6 km/h (3 Bft) E-NE 67 0 min 0 W/m -0,6 C 1,5 C 16,9 km/h (3 Bft)
16/04/2012 01:40 4,8 C 68 % 1017,2 hPa 0,0 mm 13,0 km/h (3 Bft) NE 45 0 min 0 W/m -0,6 C 1,8 C 14,8 km/h (3 Bft)
16/04/2012 01:50 4,5 C 68 % 1017,2 hPa 0,0 mm 7,9 km/h (2 Bft) N 360 0 min 0 W/m -0,9 C 2,6 C 15,8 km/h (3 Bft)
16/04/2012 02:00 4,3 C 69 % 1017,3 hPa 0,0 mm 4,7 km/h (1 Bft) N 360 0 min 0 W/m -0,9 C 3,4 C 7,2 km/h (2 Bft)
16/04/2012 02:10 4,0 C 69 % 1017,3 hPa 0,0 mm 5,4 km/h (2 Bft) N 360 0 min 0 W/m -1,2 C 2,8 C 11,2 km/h (2 Bft)
16/04/2012 02:20 3,8 C 70 % 1017,3 hPa 0,0 mm 5,4 km/h (2 Bft) E-NE 67 0 min 0 W/m -1,2 C 2,6 C 10,8 km/h (2 Bft)
16/04/2012 02:30 3,6 C 71 % 1017,3 hPa 0,0 mm 8,3 km/h (2 Bft) NE 45 0 min 0 W/m -1,2 C 1,4 C 17,6 km/h (3 Bft)
16/04/2012 02:40 3,4 C 71 % 1017,2 hPa 0,0 mm 11,9 km/h (2 Bft) N-NE 22 0 min 0 W/m -1,3 C 0,3 C 16,9 km/h (3 Bft)
16/04/2012 02:50 3,2 C 72 % 1017,2 hPa 0,0 mm 5,0 km/h (1 Bft) N-NO 337 0 min 0 W/m -1,3 C 2,0 C 5,0 km/h (1 Bft)
16/04/2012 03:02 2,9 C 73 % 1017,2 hPa 0,0 mm 9,0 km/h (2 Bft) N-NE 22 0 min 0 W/m -1,5 C 0,4 C 13,7 km/h (3 Bft)
16/04/2012 03:10 2,8 C 73 % 1017,3 hPa 0,0 mm 5,8 km/h (2 Bft) N-NE 22 0 min 0 W/m -1,5 C 1,3 C 12,6 km/h (3 Bft)
16/04/2012 03:20 2,6 C 74 % 1017,4 hPa 0,0 mm 9,7 km/h (2 Bft) N-NO 337 0 min 0 W/m -1,6 C -0,1 C 17,3 km/h (3 Bft)
16/04/2012 03:30 2,5 C 74 % 1017,4 hPa 0,0 mm 2,9 km/h (1 Bft) N-NO 337 0 min 0 W/m -1,7 C 2,5 C 7,2 km/h (2 Bft)
16/04/2012 03:40 2,3 C 74 % 1017,6 hPa 0,0 mm 3,6 km/h (1 Bft) N 360 0 min 0 W/m -1,8 C 2,3 C 8,3 km/h (2 Bft)
16/04/2012 03:50 2,3 C 75 % 1017,6 hPa 0,0 mm 7,6 km/h (2 Bft) NE 45 0 min 0 W/m -1,7 C 0,1 C 13,3 km/h (3 Bft)
16/04/2012 04:00 2,2 C 75 % 1017,7 hPa 0,0 mm 6,1 km/h (2 Bft) N-NO 337 0 min 0 W/m -1,8 C 0,5 C 7,2 km/h (2 Bft)
16/04/2012 04:10 2,1 C 76 % 1017,7 hPa 0,0 mm 9,0 km/h (2 Bft) N-NO 337 0 min 0 W/m -1,7 C -0,6 C 9,0 km/h (2 Bft)
16/04/2012 04:20 2,0 C 76 % 1017,8 hPa 0,0 mm 2,2 km/h (1 Bft) E-NE 67 0 min 0 W/m -1,8 C 2,0 C 2,9 km/h (1 Bft)
16/04/2012 04:30 1,8 C 76 % 1018,0 hPa 0,0 mm 5,8 km/h (2 Bft) N 360 0 min 0 W/m -2,0 C 0,1 C 12,6 km/h (3 Bft)
16/04/2012 04:40 1,7 C 77 % 1017,9 hPa 0,0 mm 10,4 km/h (2 Bft) N-NE 22 0 min 0 W/m -1,9 C -1,4 C 20,9 km/h (4 Bft)
16/04/2012 04:50 1,6 C 78 % 1017,9 hPa 0,0 mm 5,8 km/h (2 Bft) N-NE 22 0 min 0 W/m -1,8 C -0,1 C 8,3 km/h (2 Bft)
16/04/2012 05:00 1,5 C 78 % 1018,0 hPa 0,0 mm 7,9 km/h (2 Bft) N 360 0 min 0 W/m -1,9 C -0,9 C 9,7 km/h (2 Bft)
16/04/2012 05:10 1,4 C 78 % 1018,0 hPa 0,0 mm 1,1 km/h (1 Bft) N 360 0 min 0 W/m -2,0 C 1,4 C 4,3 km/h (1 Bft)
16/04/2012 05:20 1,3 C 79 % 1018,1 hPa 0,0 mm 3,6 km/h (1 Bft) N 360 0 min 0 W/m -1,9 C 1,3 C 7,9 km/h (2 Bft)
16/04/2012 05:30 1,2 C 80 % 1018,1 hPa 0,0 mm 5,4 km/h (2 Bft) N 360 0 min 0 W/m -1,9 C -0,4 C 9,7 km/h (2 Bft)
16/04/2012 05:40 1,1 C 81 % 1018,1 hPa 0,0 mm 5,0 km/h (1 Bft) N 360 0 min 0 W/m -1,8 C -0,3 C 5,0 km/h (1 Bft)
16/04/2012 05:50 1,1 C 80 % 1018,1 hPa 0,0 mm 7,9 km/h (2 Bft) NE 45 0 min 0 W/m -2,0 C -1,4 C 14,4 km/h (3 Bft)
16/04/2012 06:00 0,9 C 81 % 1018,2 hPa 0,0 mm 1,4 km/h (1 Bft) N-NE 22 0 min 0 W/m -2,0 C 0,9 C 4,7 km/h (1 Bft)
16/04/2012 06:10 0,9 C 81 % 1018,2 hPa 0,0 mm 4,3 km/h (1 Bft) N 360 0 min 0 W/m -2,0 C 0,9 C 9,7 km/h (2 Bft)
16/04/2012 06:20 0,8 C 82 % 1018,3 hPa 0,0 mm 4,7 km/h (1 Bft) E 90 0 min 0 W/m -1,9 C -0,5 C 9,4 km/h (2 Bft)
16/04/2012 06:30 0,6 C 82 % 1018,5 hPa 0,0 mm 9,0 km/h (2 Bft) N 360 0 min 0 W/m -2,1 C -2,3 C 18,4 km/h (3 Bft)
16/04/2012 06:40 0,6 C 82 % 1018,6 hPa 0,0 mm 5,4 km/h (2 Bft) N 360 0 min 0 W/m -2,1 C -1,1 C 5,4 km/h (2 Bft)
16/04/2012 06:50 0,6 C 83 % 1018,9 hPa 0,0 mm 2,9 km/h (1 Bft) N-NE 22 0 min 0 W/m -1,9 C 0,6 C 2,9 km/h (1 Bft)
16/04/2012 07:00 0,4 C 83 % 1019,0 hPa 0,0 mm 3,6 km/h (1 Bft) NE 45 0 min 0 W/m -2,1 C 0,4 C 9,7 km/h (2 Bft)
16/04/2012 07:10 0,3 C 84 % 1019,1 hPa 0,0 mm 1,1 km/h (1 Bft) N-NE 22 0 min 0 W/m -2,1 C 0,3 C 9,4 km/h (2 Bft)
16/04/2012 07:20 0,3 C 84 % 1019,2 hPa 0,0 mm 4,0 km/h (1 Bft) N 360 2 min 0 W/m -2,1 C 0,3 C 4,0 km/h (1 Bft)
16/04/2012 07:30 0,4 C 84 % 1019,5 hPa 0,0 mm 4,0 km/h (1 Bft) N-NO 337 2 min 0 W/m -2,0 C 0,4 C 7,6 km/h (2 Bft)
16/04/2012 07:40 0,6 C 85 % 1019,6 hPa 0,0 mm 4,3 km/h (1 Bft) N-NO 337 2 min 0 W/m -1,6 C 0,6 C 13,0 km/h (3 Bft)
16/04/2012 07:50 0,8 C 85 % 1019,6 hPa 0,0 mm 2,5 km/h (1 Bft) N 360 2 min 0 W/m -1,4 C 0,8 C 2,5 km/h (1 Bft)
16/04/2012 08:00 0,9 C 85 % 1019,6 hPa 0,0 mm 8,3 km/h (2 Bft) N-NE 22 2 min 0 W/m -1,3 C -1,8 C 10,1 km/h (2 Bft)
16/04/2012 08:10 1,2 C 85 % 1019,7 hPa 0,0 mm 3,6 km/h (1 Bft) NO 315 2 min 0 W/m -1,0 C 1,2 C 7,9 km/h (2 Bft)
16/04/2012 08:20 1,4 C 85 % 1019,9 hPa 0,0 mm 9,7 km/h (2 Bft) NE 45 2 min 0 W/m -0,8 C -1,6 C 14,4 km/h (3 Bft)
16/04/2012 08:30 1,7 C 84 % 1019,9 hPa 0,0 mm 6,1 km/h (2 Bft) N-NE 22 2 min 0 W/m -0,7 C -0,1 C 13,3 km/h (3 Bft)
16/04/2012 08:40 1,9 C 84 % 1020,0 hPa 0,0 mm 6,8 km/h (2 Bft) NO 315 2 min 0 W/m -0,5 C -0,1 C 11,9 km/h (2 Bft)
16/04/2012 08:50 2,2 C 83 % 1019,9 hPa 0,0 mm 6,8 km/h (2 Bft) N 360 2 min 0 W/m -0,4 C 0,2 C 7,6 km/h (2 Bft)
16/04/2012 09:00 2,5 C 82 % 1020,1 hPa 0,0 mm 11,9 km/h (2 Bft) N 360 2 min 0 W/m -0,3 C -0,8 C 13,7 km/h (3 Bft)
16/04/2012 09:10 2,9 C 81 % 1020,1 hPa 0,0 mm 13,7 km/h (3 Bft) NE 45 2 min 0 W/m -0,0 C -0,6 C 23,0 km/h (4 Bft)
16/04/2012 09:20 3,3 C 80 % 1020,0 hPa 0,0 mm 10,8 km/h (2 Bft) NE 45 2 min 0 W/m 0,2 C 0,4 C 13,0 km/h (3 Bft)
16/04/2012 09:30 3,6 C 78 % 1020,0 hPa 0,0 mm 12,6 km/h (3 Bft) N 360 2 min 0 W/m 0,1 C 0,4 C 20,5 km/h (4 Bft)
16/04/2012 09:40 3,9 C 76 % 1020,1 hPa 0,0 mm 10,1 km/h (2 Bft) NE 45 2 min 0 W/m 0,1 C 1,3 C 10,8 km/h (2 Bft)
16/04/2012 09:50 4,5 C 75 % 1020,2 hPa 0,0 mm 14,8 km/h (3 Bft) N-NE 22 2 min 0 W/m 0,5 C 1,2 C 23,0 km/h (4 Bft)
16/04/2012 10:00 5,1 C 73 % 1020,3 hPa 0,0 mm 12,6 km/h (3 Bft) NE 45 2 min 0 W/m 0,7 C 2,3 C 26,3 km/h (4 Bft)
16/04/2012 10:10 5,4 C 72 % 1020,3 hPa 0,0 mm 11,2 km/h (2 Bft) N-NE 22 2 min 0 W/m 0,8 C 2,9 C 11,2 km/h (2 Bft)
16/04/2012 10:20 5,8 C 69 % 1020,4 hPa 0,0 mm 8,6 km/h (2 Bft) NE 45 2 min 0 W/m 0,6 C 3,9 C 8,6 km/h (2 Bft)
16/04/2012 10:30 6,1 C 68 % 1020,5 hPa 0,0 mm 10,4 km/h (2 Bft) N 360 2 min 0 W/m 0,6 C 3,9 C 18,0 km/h (3 Bft)
16/04/2012 10:40 6,5 C 65 % 1020,6 hPa 0,0 mm 15,5 km/h (3 Bft) N 360 2 min 0 W/m 0,4 C 3,5 C 25,9 km/h (4 Bft)
16/04/2012 10:50 6,9 C 63 % 1020,6 hPa 0,0 mm 11,9 km/h (2 Bft) N-NE 22 2 min 0 W/m 0,4 C 4,6 C 15,1 km/h (3 Bft)
16/04/2012 11:00 7,2 C 60 % 1020,7 hPa 0,0 mm 11,5 km/h (2 Bft) N-NE 22 2 min 0 W/m -0,0 C 5,0 C 22,0 km/h (4 Bft)
16/04/2012 11:10 7,6 C 60 % 1020,8 hPa 0,0 mm 12,6 km/h (3 Bft) N-NE 22 2 min 0 W/m 0,3 C 5,3 C 17,6 km/h (3 Bft)
16/04/2012 11:20 7,9 C 58 % 1021,0 hPa 0,0 mm 16,6 km/h (3 Bft) N 360 2 min 0 W/m 0,2 C 5,1 C 29,2 km/h (5 Bft)
16/04/2012 11:30 8,2 C 56 % 1020,9 hPa 0,0 mm 14,8 km/h (3 Bft) N-NE 22 2 min 0 W/m -0,0 C 5,7 C 24,8 km/h (4 Bft)
16/04/2012 11:40 8,4 C 56 % 1021,0 hPa 0,0 mm 14,8 km/h (3 Bft) N-NO 337 2 min 0 W/m 0,1 C 6,0 C 29,9 km/h (5 Bft)
16/04/2012 11:50 8,6 C 52 % 1020,8 hPa 0,0 mm 22,7 km/h (4 Bft) NE 45 2 min 0 W/m -0,7 C 5,3 C 34,9 km/h (5 Bft)
16/04/2012 12:00 8,8 C 54 % 1021,0 hPa 0,0 mm 9,0 km/h (2 Bft) NE 45 2 min 0 W/m 0,0 C 7,4 C 15,1 km/h (3 Bft)
16/04/2012 12:10 8,9 C 54 % 1021,1 hPa 0,0 mm 11,2 km/h (2 Bft) N-NE 22 2 min 0 W/m 0,1 C 7,1 C 15,8 km/h (3 Bft)
16/04/2012 12:20 9,2 C 52 % 1021,2 hPa 0,0 mm 20,5 km/h (4 Bft) N-NE 22 2 min 0 W/m -0,1 C 6,3 C 30,2 km/h (5 Bft)
16/04/2012 12:30 9,4 C 53 % 1021,2 hPa 0,0 mm 13,0 km/h (3 Bft) N 360 2 min 0 W/m 0,3 C 7,4 C 13,0 km/h (3 Bft)
16/04/2012 12:40 9,6 C 50 % 1021,2 hPa 0,0 mm 10,8 km/h (2 Bft) N-NE 22 2 min 0 W/m -0,3 C 8,0 C 14,0 km/h (3 Bft)
16/04/2012 12:50 9,5 C 51 % 1021,1 hPa 0,0 mm 12,6 km/h (3 Bft) N-NE 22 2 min 0 W/m -0,1 C 7,6 C 15,1 km/h (3 Bft)
16/04/2012 13:00 9,3 C 50 % 1021,1 hPa 0,0 mm 13,7 km/h (3 Bft) N-NE 22 2 min 0 W/m -0,6 C 7,2 C 14,8 km/h (3 Bft)
16/04/2012 13:10 9,2 C 49 % 1021,0 hPa 0,0 mm 14,0 km/h (3 Bft) N-NE 22 2 min 0 W/m -0,9 C 7,1 C 22,0 km/h (4 Bft)
16/04/2012 13:20 9,5 C 50 % 1021,0 hPa 0,0 mm 10,1 km/h (2 Bft) N-NE 22 2 min 0 W/m -0,4 C 8,0 C 11,9 km/h (2 Bft)
16/04/2012 13:30 9,8 C 50 % 1021,0 hPa 0,0 mm 8,6 km/h (2 Bft) N-NE 22 2 min 0 W/m -0,1 C 8,7 C 10,8 km/h (2 Bft)
16/04/2012 13:40 9,9 C 48 % 1020,9 hPa 0,0 mm 14,8 km/h (3 Bft) N 360 2 min 0 W/m -0,6 C 7,8 C 25,9 km/h (4 Bft)
16/04/2012 13:50 10,0 C 50 % 1021,0 hPa 0,0 mm 9,0 km/h (2 Bft) NE 45 2 min 0 W/m 0,1 C 8,8 C 10,8 km/h (2 Bft)
16/04/2012 14:00 10,3 C 48 % 1021,0 hPa 0,0 mm 11,9 km/h (2 Bft) NE 45 2 min 0 W/m -0,2 C 10,3 C 18,4 km/h (3 Bft)
16/04/2012 14:10 10,3 C 48 % 1020,9 hPa 0,0 mm 12,2 km/h (2 Bft) NE 45 2 min 0 W/m -0,2 C 10,3 C 19,8 km/h (3 Bft)
16/04/2012 14:20 10,4 C 46 % 1021,0 hPa 0,0 mm 11,9 km/h (2 Bft) N-NE 22 2 min 0 W/m -0,7 C 10,4 C 20,5 km/h (4 Bft)
16/04/2012 14:30 10,6 C 46 % 1020,9 hPa 0,0 mm 13,7 km/h (3 Bft) N-NE 22 2 min 0 W/m -0,5 C 10,6 C 13,7 km/h (3 Bft)
16/04/2012 14:40 10,9 C 46 % 1020,7 hPa 0,0 mm 16,2 km/h (3 Bft) NE 45 2 min 0 W/m -0,3 C 10,9 C 19,1 km/h (3 Bft)
16/04/2012 14:50 10,9 C 45 % 1020,6 hPa 0,0 mm 15,1 km/h (3 Bft) N-NE 22 2 min 0 W/m -0,6 C 10,9 C 23,4 km/h (4 Bft)
16/04/2012 15:00 10,8 C 46 % 1020,6 hPa 0,0 mm 18,4 km/h (3 Bft) E-NE 67 2 min 0 W/m -0,3 C 10,8 C 33,8 km/h (5 Bft)
16/04/2012 15:10 10,6 C 46 % 1020,7 hPa 0,0 mm 11,9 km/h (2 Bft) N-NE 22 2 min 0 W/m -0,5 C 10,6 C 13,3 km/h (3 Bft)
16/04/2012 15:20 10,8 C 46 % 1020,6 hPa 0,0 mm 11,9 km/h (2 Bft) N-NE 22 2 min 0 W/m -0,3 C 10,8 C 16,6 km/h (3 Bft)
16/04/2012 15:30 10,9 C 46 % 1020,6 hPa 0,0 mm 9,0 km/h (2 Bft) N 360 2 min 0 W/m -0,3 C 10,9 C 18,0 km/h (3 Bft)
16/04/2012 15:40 11,0 C 46 % 1020,6 hPa 0,0 mm 7,2 km/h (2 Bft) N 360 2 min 0 W/m -0,2 C 11,0 C 11,9 km/h (2 Bft)
16/04/2012 15:50 10,9 C 46 % 1020,5 hPa 0,0 mm 15,8 km/h (3 Bft) N-NE 22 2 min 0 W/m -0,3 C 10,9 C 24,1 km/h (4 Bft)
16/04/2012 16:00 11,0 C 45 % 1020,5 hPa 0,0 mm 15,8 km/h (3 Bft) N 360 2 min 0 W/m -0,5 C 11,0 C 15,8 km/h (3 Bft)
16/04/2012 16:10 11,1 C 45 % 1020,3 hPa 0,0 mm 14,4 km/h (3 Bft) N 360 2 min 0 W/m -0,4 C 11,1 C 18,7 km/h (3 Bft)
16/04/2012 16:20 11,1 C 45 % 1020,3 hPa 0,0 mm 10,4 km/h (2 Bft) N-NE 22 2 min 0 W/m -0,4 C 11,1 C 18,4 km/h (3 Bft)
16/04/2012 16:30 11,1 C 44 % 1020,3 hPa 0,0 mm 16,6 km/h (3 Bft) E-NE 67 2 min 0 W/m -0,7 C 11,1 C 25,9 km/h (4 Bft)
16/04/2012 16:40 10,9 C 44 % 1020,3 hPa 0,0 mm 2,5 km/h (1 Bft) N 360 2 min 0 W/m -0,9 C 10,9 C 3,2 km/h (1 Bft)
16/04/2012 16:50 11,1 C 45 % 1020,4 hPa 0,0 mm 12,2 km/h (2 Bft) N 360 2 min 0 W/m -0,4 C 11,1 C 17,3 km/h (3 Bft)
16/04/2012 17:00 11,1 C 45 % 1020,4 hPa 0,0 mm 5,4 km/h (2 Bft) O 270 2 min 0 W/m -0,4 C 11,1 C 11,2 km/h (2 Bft)
16/04/2012 17:10 11,2 C 44 % 1020,4 hPa 0,0 mm 11,5 km/h (2 Bft) N-NE 22 2 min 0 W/m -0,6 C 11,2 C 18,0 km/h (3 Bft)
16/04/2012 17:20 10,9 C 44 % 1020,4 hPa 0,0 mm 18,0 km/h (3 Bft) N 360 2 min 0 W/m -0,9 C 10,9 C 31,0 km/h (5 Bft)
16/04/2012 17:30 10,5 C 45 % 1020,5 hPa 0,0 mm 5,8 km/h (2 Bft) NE 45 2 min 0 W/m -0,9 C 10,5 C 6,1 km/h (2 Bft)
16/04/2012 17:40 10,8 C 44 % 1020,5 hPa 0,0 mm 17,3 km/h (3 Bft) NO 315 2 min 0 W/m -1,0 C 10,8 C 17,6 km/h (3 Bft)
16/04/2012 17:50 10,8 C 44 % 1020,5 hPa 0,0 mm 17,3 km/h (3 Bft) NO 315 2 min 0 W/m -1,0 C 10,8 C 17,6 km/h (3 Bft)
16/04/2012 18:00 10,8 C 45 % 1020,6 hPa 0,0 mm 13,7 km/h (3 Bft) N-NE 22 2 min 0 W/m -0,6 C 10,8 C 13,7 km/h (3 Bft)
16/04/2012 18:10 10,8 C 45 % 1020,6 hPa 0,0 mm 13,7 km/h (3 Bft) N-NE 22 2 min 0 W/m -0,6 C 10,8 C 13,7 km/h (3 Bft)
16/04/2012 18:20 10,1 C 45 % 1020,7 hPa 0,0 mm 13,3 km/h (3 Bft) N-NE 22 2 min 0 W/m -1,3 C 10,1 C 25,6 km/h (4 Bft)
16/04/2012 18:30 10,2 C 45 % 1020,6 hPa 0,0 mm 13,3 km/h (3 Bft) NE 45 2 min 0 W/m -1,2 C 10,2 C 16,2 km/h (3 Bft)
16/04/2012 18:40 10,7 C 45 % 1020,5 hPa 0,0 mm 11,2 km/h (2 Bft) N-NO 337 2 min 0 W/m -0,7 C 10,7 C 19,8 km/h (3 Bft)
16/04/2012 18:50 10,6 C 44 % 1020,6 hPa 0,0 mm 9,4 km/h (2 Bft) E-NE 67 2 min 0 W/m -1,1 C 10,6 C 15,8 km/h (3 Bft)
16/04/2012 19:00 10,4 C 44 % 1020,7 hPa 0,0 mm 9,7 km/h (2 Bft) N 360 2 min 0 W/m -1,3 C 10,4 C 16,6 km/h (3 Bft)
16/04/2012 19:10 10,1 C 44 % 1020,7 hPa 0,0 mm 6,1 km/h (2 Bft) NE 45 2 min 0 W/m -1,6 C 10,1 C 8,3 km/h (2 Bft)
16/04/2012 19:20 9,4 C 46 % 1020,8 hPa 0,0 mm 6,1 km/h (2 Bft) N-NO 337 2 min 0 W/m -1,6 C 8,8 C 12,6 km/h (3 Bft)
16/04/2012 19:30 9,1 C 47 % 1020,8 hPa 0,0 mm 5,8 km/h (2 Bft) N 360 2 min 0 W/m -1,6 C 8,5 C 7,6 km/h (2 Bft)
16/04/2012 19:40 9,1 C 46 % 1020,7 hPa 0,0 mm 9,7 km/h (2 Bft) N-NE 22 2 min 0 W/m -1,9 C 7,6 C 9,7 km/h (2 Bft)
16/04/2012 19:50 8,8 C 46 % 1020,8 hPa 0,0 mm 4,3 km/h (1 Bft) N-NE 22 2 min 0 W/m -2,2 C 8,8 C 7,2 km/h (2 Bft)
16/04/2012 20:00 8,4 C 47 % 1020,9 hPa 0,0 mm 5,0 km/h (1 Bft) N 360 2 min 0 W/m -2,2 C 7,9 C 10,4 km/h (2 Bft)
16/04/2012 20:10 8,1 C 48 % 1021,0 hPa 0,0 mm 5,0 km/h (1 Bft) NE 45 2 min 0 W/m -2,2 C 7,6 C 6,1 km/h (2 Bft)
16/04/2012 20:20 7,8 C 49 % 1021,0 hPa 0,0 mm 3,2 km/h (1 Bft) N-NE 22 2 min 0 W/m -2,2 C 7,8 C 4,3 km/h (1 Bft)
16/04/2012 20:30 7,4 C 50 % 1020,9 hPa 0,0 mm 1,8 km/h (1 Bft) N 360 2 min 0 W/m -2,3 C 7,4 C 7,6 km/h (2 Bft)
16/04/2012 20:40 7,1 C 52 % 1021,0 hPa 0,0 mm 1,8 km/h (1 Bft) N 360 0 min 0 W/m -2,1 C 7,1 C 6,5 km/h (2 Bft)
16/04/2012 20:50 6,8 C 52 % 1021,1 hPa 0,0 mm 2,2 km/h (1 Bft) N 360 0 min 0 W/m -2,4 C 6,8 C 3,6 km/h (1 Bft)
16/04/2012 21:00 6,4 C 53 % 1021,1 hPa 0,0 mm 1,1 km/h (1 Bft) N-NE 22 0 min 0 W/m -2,5 C 6,4 C 3,6 km/h (1 Bft)
16/04/2012 21:10 6,1 C 54 % 1021,1 hPa 0,0 mm 0,0 km/h (0 Bft) N-NE 22 0 min 0 W/m -2,5 C 6,1 C 0,0 km/h (0 Bft)
16/04/2012 21:20 5,8 C 55 % 1021,1 hPa 0,0 mm 0,4 km/h (0 Bft) N-NE 22 0 min 0 W/m -2,5 C 5,8 C 4,0 km/h (1 Bft)
16/04/2012 21:30 5,4 C 56 % 1021,1 hPa 0,0 mm 1,1 km/h (1 Bft) N 360 0 min 0 W/m -2,7 C 5,4 C 4,0 km/h (1 Bft)
16/04/2012 21:40 4,9 C 56 % 1021,1 hPa 0,0 mm 0,0 km/h (0 Bft) N-NE 22 0 min 0 W/m -3,1 C 4,9 C 0,0 km/h (0 Bft)
16/04/2012 21:50 4,6 C 57 % 1021,2 hPa 0,0 mm 0,0 km/h (0 Bft) N-NE 22 0 min 0 W/m -3,2 C 4,6 C 0,0 km/h (0 Bft)
16/04/2012 22:00 4,3 C 58 % 1021,3 hPa 0,0 mm 0,0 km/h (0 Bft) N-NE 22 0 min 0 W/m -3,2 C 4,3 C 0,0 km/h (0 Bft)
16/04/2012 22:10 3,8 C 60 % 1021,4 hPa 0,0 mm 0,0 km/h (0 Bft) NE 45 0 min 0 W/m -3,2 C 3,8 C 0,0 km/h (0 Bft)
16/04/2012 22:20 3,4 C 60 % 1021,3 hPa 0,0 mm 0,0 km/h (0 Bft) N-NE 22 0 min 0 W/m -3,6 C 3,4 C 0,0 km/h (0 Bft)
16/04/2012 22:30 3,1 C 61 % 1021,3 hPa 0,0 mm 0,0 km/h (0 Bft) N 360 0 min 0 W/m -3,7 C 3,1 C 0,0 km/h (0 Bft)
16/04/2012 22:40 2,8 C 61 % 1021,3 hPa 0,0 mm 0,0 km/h (0 Bft) N 360 0 min 0 W/m -4,0 C 2,8 C 0,0 km/h (0 Bft)
16/04/2012 22:50 2,5 C 62 % 1021,3 hPa 0,0 mm 0,0 km/h (0 Bft) NE 45 0 min 0 W/m -4,0 C 2,5 C 0,0 km/h (0 Bft)
16/04/2012 23:00 2,3 C 63 % 1021,2 hPa 0,0 mm 0,0 km/h (0 Bft) NE 45 0 min 0 W/m -4,0 C 2,3 C 0,0 km/h (0 Bft)
_ Min-Heure 07:20 19:10 00:00 - 23:00 - - - - 22:50 06:30 23:00
Minimum _ 0,3 C 44 % 1016,3 hPa - 0,0 km/h (0 Bft) - - - - -4,0 C -2,3 C 0,0 km/h (0 Bft)
_ Max-Heure 17:10 08:20 22:10 23:00 11:50 - - 20:30 23:00 10:10 17:10 11:50
Maximum _ 11,2 C 85 % 1021,4 hPa 0,0 mm 22,7 km/h
NE (4 Bft)
- - 2 min 0 W/m 0,8 C 11,2 C 34,9 km/h
NE (5 Bft)
Moyenne _ 6,0 C 62 % 1019,7 hPa #0,0 mm 8,6 km/h (2 Bft) N-NE - #2:40 h 0 W/m -1,1 C 4,9 C 13,2 km/h (3 Bft)
Saint Bonnet de Bellac- Haute Vienne - France